Flag for Poland Weather past 2 weeks in Gdynia, Poland

45 °F


Feels Like: 39 °F
Forecast: 36 / 47 °F
Wind: 12 mph from East

Location: Gdansk-Rebiechowo

Current Time: Oct 9, 2015 at 1:00:41 PM

Latest Report: Oct 9, 2015 at 12:30 PM

Visibility: 10 mi

Pressure: 30.33 "Hg

Humidity: 46%

Dew point: 25 °F

Location of GdyniaLocation

Historic Weather in Gdynia — Graph


Gdynia temperature yesterday

Maximum temperature yesterday: 50 °F (at 3:00 PM)
Minimum temperature yesterday: 30 °F (at 4:00 AM)
Average temperature yesterday: 39 °F

Past Weeks' High & Low Weather Summary

High70 °F (Oct 4, 3:30 PM)100% (Sep 24, 11:00 PM)30.69 "Hg (Sep 24, 11:00 PM)
Low28 °F (Oct 9, 3:00 AM)35% (Oct 8, 4:00 PM)29.89 "Hg (Oct 4, 10:30 AM)
Average51 °F78%30.24 "Hg
* Reported Sep 24 12:00 Noon — Oct 9 12:00 Noon, Gdynia, Weather by CustomWeather, © 2015

Note: Actual official high and low records may vary slightly from our data, if they occured in-between our weather recording intervals... More about our weather records


Gdynia weather history for previous 24 hours

Time TempWeatherWind HumidityBarometerVisibility
12:00 PM
Fri, Oct 9
45 °FSunny.12 mph46%30.33 "Hg10 mi
11:30 AM43 °FSunny.13 mph49%30.33 "Hg10 mi
11:00 AM43 °FSunny.10 mph49%30.33 "Hg10 mi
10:30 AM43 °FPassing clouds.7 mph53%30.33 "HgN/A
10:00 AM41 °FSunny.8 mph57%30.33 "Hg10 mi
9:30 AM39 °FSunny.6 mph61%30.33 "Hg10 mi
9:00 AM37 °FSunny.6 mph70%30.33 "Hg10 mi
8:30 AM36 °FSunny.7 mph75%30.30 "Hg10 mi
8:00 AM34 °FClear.5 mph81%30.30 "Hg10 mi
7:30 AM32 °FClear.3 mph80%30.30 "Hg10 mi
7:00 AM30 °FClear.2 mph86%30.30 "Hg10 mi
6:30 AM28 °FClear.No wind93%30.30 "Hg10 mi
6:00 AM28 °FClear.No wind86%30.30 "Hg10 mi
5:30 AM28 °FClear.No wind93%30.30 "Hg10 mi
5:00 AM28 °FClear.1 mph86%30.30 "Hg10 mi
4:30 AM28 °FClear.1 mph86%30.27 "Hg10 mi
4:00 AM28 °FClear.No wind86%30.27 "Hg10 mi
3:30 AM28 °FClear.1 mph86%30.27 "Hg10 mi
3:00 AM28 °FClear.1 mph86%30.27 "Hg10 mi
2:30 AM32 °FClear.3 mph80%30.27 "Hg10 mi
2:00 AM30 °FClear.No wind80%30.27 "Hg10 mi
1:30 AM30 °FClear.1 mph86%30.27 "Hg10 mi
1:00 AM32 °FClear.1 mph80%30.27 "Hg10 mi
12:30 AM36 °FClear.3 mph70%30.27 "Hg10 mi
12:00 AM36 °FClear.5 mph70%30.27 "Hg10 mi
11:30 PM
Thu, Oct 8
34 °FClear.6 mph75%30.27 "Hg10 mi
11:00 PM36 °FClear.5 mph65%30.27 "Hg10 mi
10:30 PM37 °FClear.6 mph60%30.27 "Hg10 mi
10:00 PM37 °FClear.7 mph60%30.27 "Hg10 mi
9:30 PM39 °FClear.8 mph56%30.27 "Hg10 mi
9:00 PM37 °FClear.7 mph60%30.27 "Hg10 mi
8:30 PM39 °FClear.7 mph56%30.24 "Hg10 mi
8:00 PM39 °FClear.7 mph56%30.24 "Hg10 mi
7:30 PM41 °FClear.8 mph53%30.24 "Hg10 mi
7:00 PM43 °FSunny.9 mph49%30.24 "Hg10 mi
6:30 PM43 °FSunny.8 mph53%30.24 "Hg10 mi
6:00 PM45 °FSunny.8 mph49%30.24 "Hg10 mi
5:30 PM46 °FSunny.8 mph46%30.24 "Hg10 mi
5:00 PM48 °FSunny.9 mph37%30.24 "Hg10 mi
4:30 PM48 °FSunny.10 mph43%30.24 "Hg10 mi
4:00 PM50 °FSunny.13 mph35%30.24 "Hg10 mi
3:30 PM50 °FPassing clouds.12 mph37%30.24 "HgN/A
3:00 PM50 °FPassing clouds.12 mph40%30.24 "HgN/A
2:30 PM48 °FSunny.12 mph43%30.24 "Hg10 mi
2:00 PM48 °FSunny.14 mph43%30.24 "Hg10 mi
1:30 PM48 °FSunny.13 mph40%30.24 "Hg10 mi
1:00 PM48 °FSunny.13 mph43%30.24 "Hg10 mi
Weather by CustomWeather, © 2015

See weather overviewHow to use our weather pages